| time (UTC) | temp C | wind direction | speed KPH | gust KPH | rain 1hr cm | rain 24hr cm | rain mn cm | humidity % | barometer mb |
| 20260505211540 | 16 | 242 | 6.4 | 14.5 | 0.00 | 0.00 | 0.00 | 76 | 1017.7 |
| 20260505210046 | 15 | 167 | 4.8 | 16.1 | 0.00 | 0.00 | 0.00 | 77 | 1017.7 |
| 20260505204547 | 15 | 173 | 4.8 | 11.3 | 0.00 | 0.00 | 0.00 | 77 | 1017.8 |
| 20260505203038 | 15 | 213 | 1.6 | 12.9 | 0.00 | 0.00 | 0.00 | 79 | 1017.9 |
| 20260505201541 | 15 | 143 | 3.2 | 8.0 | 0.00 | 0.00 | 0.00 | 80 | 1017.8 |
| 20260505200042 | 14 | 238 | 3.2 | 11.3 | 0.00 | 0.00 | 0.00 | 80 | 1017.8 |
| 20260505194540 | 14 | 201 | 3.2 | 11.3 | 0.00 | 0.00 | 0.00 | 80 | 1017.9 |
| 20260505193042 | 14 | 189 | 4.8 | 16.1 | 0.00 | 0.00 | 0.00 | 81 | 1017.8 |
| 20260505191537 | 14 | 165 | 4.8 | 14.5 | 0.00 | 0.00 | 0.00 | 81 | 1017.7 |
| 20260505190037 | 13 | 196 | 6.4 | 19.3 | 0.00 | 0.00 | 0.00 | 81 | 1017.8 |
| 20260505184537 | 13 | 203 | 4.8 | 12.9 | 0.00 | 0.00 | 0.00 | 81 | 1017.7 |
| 20260505183049 | 13 | 215 | 3.2 | 16.1 | 0.00 | 0.00 | 0.00 | 82 | 1017.7 |
| 20260505181539 | 13 | 205 | 6.4 | 14.5 | 0.00 | 0.00 | 0.00 | 82 | 1017.6 |
| 20260505180043 | 13 | 169 | 3.2 | 9.7 | 0.00 | 0.00 | 0.00 | 82 | 1017.7 |
| 20260505174537 | 13 | 190 | 3.2 | 11.3 | 0.00 | 0.00 | 0.00 | 83 | 1017.6 |
| 20260505173038 | 13 | 157 | 3.2 | 16.1 | 0.00 | 0.00 | 0.00 | 84 | 1017.6 |
| 20260505171537 | 13 | 145 | 4.8 | 14.5 | 0.00 | 0.00 | 0.00 | 84 | 1017.6 |
| 20260505170043 | 12 | 136 | 3.2 | 16.1 | 0.00 | 0.00 | 0.00 | 84 | 1017.5 |
| 20260505164553 | 12 | 215 | 3.2 | 12.9 | 0.00 | 0.00 | 0.00 | 84 | 1017.6 |
| 20260505163039 | 12 | 188 | 6.4 | 14.5 | 0.00 | 0.00 | 0.00 | 84 | 1017.4 |
| 20260505161549 | 12 | 163 | 6.4 | 16.1 | 0.00 | 0.00 | 0.00 | 84 | 1017.5 |
| 20260505153045 | 12 | 202 | 3.2 | 12.9 | 0.00 | 0.00 | 0.00 | 85 | 1017.3 |
| 20260505151538 | 12 | 223 | 4.8 | 12.9 | 0.00 | 0.00 | 0.00 | 85 | 1017.2 |
| 20260505124545 | 12 | 196 | 4.8 | 16.1 | 0.00 | 0.00 | 0.00 | 87 | 1016.0 |
| 20260505123043 | 11 | 173 | 4.8 | 12.9 | 0.00 | 0.00 | 0.00 | 88 | 1015.9 |
| 20260505121539 | 11 | 197 | 8.0 | 20.9 | 0.00 | 0.00 | 0.00 | 88 | 1015.8 |
| 20260505120048 | 11 | 182 | 8.0 | 22.5 | 0.00 | 0.00 | 0.00 | 88 | 1015.8 |
| 20260505114536 | 11 | 186 | 6.4 | 17.7 | 0.00 | 0.00 | 0.00 | 88 | 1015.6 |
| 20260505113051 | 11 | 165 | 4.8 | 14.5 | 0.00 | 0.00 | 0.00 | 88 | 1015.6 |
| 20260505111538 | 11 | 150 | 8.0 | 17.7 | 0.00 | 0.00 | 0.00 | 88 | 1015.5 |
| 20260505101539 | 11 | 132 | 8.0 | 17.7 | 0.00 | 0.00 | 0.00 | 89 | 1015.3 |
| 20260505100039 | 11 | 181 | 4.8 | 16.1 | 0.00 | 0.00 | 0.00 | 89 | 1015.2 |
| 20260505094539 | 11 | 167 | 9.7 | 20.9 | 0.00 | 0.00 | 0.00 | 89 | 1015.1 |
| 20260505093038 | 11 | 134 | 8.0 | 22.5 | 0.00 | 0.00 | 0.00 | 89 | 1015.1 |
| 20260505091540 | 11 | 133 | 6.4 | 14.5 | 0.00 | 0.00 | 0.00 | 88 | 1015.0 |
| 20260505090038 | 11 | 77 | 3.2 | 11.3 | 0.00 | 0.00 | 0.00 | 88 | 1014.8 |
| 20260505084546 | 12 | 156 | 4.8 | 12.9 | 0.00 | 0.00 | 0.00 | 88 | 1014.7 |
| 20260505083046 | 12 | 186 | 4.8 | 16.1 | 0.00 | 0.00 | 0.00 | 87 | 1014.6 |
| 20260505081549 | 12 | 141 | 6.4 | 12.9 | 0.00 | 0.00 | 0.00 | 87 | 1014.6 |
| 20260505080043 | 12 | 115 | 8.0 | 19.3 | 0.00 | 0.00 | 0.00 | 87 | 1014.6 |
| 20260505074539 | 12 | 157 | 4.8 | 14.5 | 0.00 | 0.00 | 0.00 | 86 | 1014.7 |
| 20260505073039 | 12 | 146 | 8.0 | 20.9 | 0.00 | 0.00 | 0.00 | 85 | 1014.5 |
| 20260505071545 | 12 | 168 | 4.8 | 12.9 | 0.00 | 0.00 | 0.00 | 85 | 1014.3 |
| 20260505070047 | 13 | 188 | 1.6 | 9.7 | 0.00 | 0.00 | 0.00 | 84 | 1014.1 |
| 20260505064540 | 13 | 143 | 3.2 | 11.3 | 0.00 | 0.00 | 0.00 | 83 | 1014.1 |
| 20260505063039 | 13 | 155 | 4.8 | 12.9 | 0.00 | 0.00 | 0.00 | 82 | 1014.0 |
| 20260505061538 | 14 | 129 | 6.4 | 11.3 | 0.00 | 0.00 | 0.00 | 81 | 1013.8 |
| 20260505060042 | 14 | 177 | 0.0 | 11.3 | 0.00 | 0.00 | 0.00 | 80 | 1013.7 |
| 20260505054538 | 15 | 140 | 6.4 | 16.1 | 0.00 | 0.00 | 0.00 | 80 | 1013.5 |
| 20260505053105 | 15 | 149 | 8.0 | 19.3 | 0.00 | 0.00 | 0.00 | 79 | 1013.3 |
| 20260505051538 | 15 | 155 | 8.0 | 17.7 | 0.00 | 0.00 | 0.00 | 78 | 1013.2 |
| 20260505041545 | 17 | 129 | 3.2 | 6.4 | 0.00 | 0.00 | 0.00 | 72 | 1012.9 |
| 20260505040042 | 18 | 0 | 0.0 | 0.0 | 0.00 | 0.00 | 0.00 | 66 | 1012.6 |
| 20260505034537 | 18 | 0 | 0.0 | 1.6 | 0.00 | 0.00 | 0.00 | 64 | 1012.4 |
| 20260505033045 | 18 | 0 | 0.0 | 4.8 | 0.00 | 0.00 | 0.00 | 62 | 1012.4 |
| 20260505031536 | 19 | 160 | 0.0 | 8.0 | 0.00 | 0.00 | 0.00 | 60 | 1012.3 |
| 20260505030046 | 20 | 250 | 1.6 | 6.4 | 0.00 | 0.00 | 0.00 | 60 | 1012.3 |
| 20260505024540 | 20 | 342 | 3.2 | 8.0 | 0.00 | 0.00 | 0.00 | 57 | 1012.1 |
| 20260505023046 | 20 | 346 | 3.2 | 9.7 | 0.00 | 0.00 | 0.00 | 59 | 1012.0 |
| 20260505021537 | 20 | 14 | 4.8 | 16.1 | 0.00 | 0.00 | 0.00 | 61 | 1012.1 |
| 20260505020037 | 20 | 338 | 8.0 | 16.1 | 0.00 | 0.00 | 0.00 | 62 | 1012.1 |
| 20260505014537 | 21 | 327 | 8.0 | 19.3 | 0.00 | 0.00 | 0.00 | 59 | 1012.0 |
| 20260505013043 | 21 | 324 | 8.0 | 17.7 | 0.00 | 0.00 | 0.00 | 60 | 1012.0 |
| 20260505011558 | 22 | 349 | 9.7 | 16.1 | 0.00 | 0.00 | 0.00 | 55 | 1012.0 |
| 20260505010039 | 26 | 205 | 1.6 | 8.0 | 0.00 | 0.00 | 0.00 | 49 | 1012.0 |
| 20260505004537 | 26 | 205 | 3.2 | 8.0 | 0.00 | 0.00 | 0.00 | 48 | 1011.9 |
| 20260505003037 | 26 | 229 | 1.6 | 8.0 | 0.00 | 0.00 | 0.00 | 47 | 1012.1 |
| 20260505001538 | 26 | 0 | 3.2 | 6.4 | 0.00 | 0.00 | 0.00 | 46 | 1012.0 |
| 20260505000043 | 26 | 0 | 3.2 | 9.7 | 0.00 | 0.00 | 0.00 | 46 | 1011.9 |
| 20260504234540 | 26 | 264 | 3.2 | 9.7 | 0.00 | 0.00 | 0.00 | 46 | 1012.0 |
| 20260504233051 | 26 | 257 | 1.6 | 11.3 | 0.00 | 0.00 | 0.00 | 46 | 1012.0 |
| 20260504231538 | 26 | 246 | 3.2 | 9.7 | 0.00 | 0.00 | 0.00 | 46 | 1011.8 |
| 20260504230038 | 26 | 263 | 3.2 | 9.7 | 0.00 | 0.00 | 0.00 | 47 | 1011.8 |
| 20260504224544 | 26 | 229 | 3.2 | 11.3 | 0.00 | 0.00 | 0.00 | 48 | 1012.0 |
| 20260504223037 | 25 | 227 | 4.8 | 8.0 | 0.00 | 0.00 | 0.00 | 47 | 1012.1 |
| 20260504221539 | 25 | 235 | 3.2 | 8.0 | 0.00 | 0.00 | 0.00 | 49 | 1012.3 |
| 20260504220039 | 24 | 252 | 3.2 | 11.3 | 0.00 | 0.00 | 0.00 | 53 | 1012.4 |
| 20260504214538 | 23 | 242 | 4.8 | 11.3 | 0.00 | 0.00 | 0.00 | 58 | 1012.4 |
| 20260504213038 | 23 | 240 | 4.8 | 12.9 | 0.00 | 0.00 | 0.00 | 61 | 1012.5 |